Location: Ariel
(45.9570°N, 122.5700°W)
Time: 16:26:35
(UTC-08:00)

Transit 4A - Pass Details

Date: 29 October 2020
Orbit: 862 x 982 km, 66.8° (Epoch: 03 December)

Event Time Altitude Azimuth Distance (km) Brightness Sun altitude
Rises 22:29:47 0° 328° (NNW) 3,694 11.7 -45.9°
Reaches altitude 10° 22:33:06 10° 344° (NNW) 2,745 10.7 -46.4°
Enters shadow 22:33:31 11° 347° (NNW) 2,641 10.6 -46.5°
